Content
SEND FEEDBACK

Daily
Averages
Monthly
Summary
United States of America

ABINGTON, MASSACHUSETTS


Home > North America > United States > Massachusetts
Elevation: 157 feet     Latitude: 42 01N     Longitude: 070 55W

WEATHER
 
SELECT A DAY
Number of Records: 133,249;   Date Range: 10/15/98 - 9/20/14
 
SHARE

PRINT THIS DATA

[ ← Previous Day ]
WEATHER ALMANAC - FEBRUARY 13, 2013
[ Next Day → ]
[ °C ]   °F
Weather ElementAverageHighLow
Temperature33.7 °F39.9 °F (12:54 pm)28 °F (5:54 am)
Dewpoint21.7 °F25 °F (11:54 pm)19 °F (4:54 am)
Humidity62.3 %75 % (11:54 pm)49 % (12:54 pm)
Barometer29.81 in29.89 in (8:54 am)29.73 in (11:54 pm)
Wind Speed7.5 mph13.8 mph (2:54 am)
Weather ElementAverage
Wind DirectionSSW (208.7 °)

Weather ElementTotal
Precipitation---
Heating Degree Days31.1 (Base 65)
Averaged from 23 records on February 13, 2013
WEATHER CONDITIONS BREAKOUT
WIND DIRECTION BREAKOUT
WEATHER BY HOUR - FEBRUARY 13, 2013
[ °C ]   °F
Local TimeTemperatureDewpointHumidityBarometerVisibilityWind DirectionWind SpeedGust SpeedPrecipitationEventsConditions
1:54 AM28.9 °F21.0 °F72 %29.84 inWest (280°)11.5 mph
2:54 AM28.9 °F19.9 °F69 %29.85 inWest (270°)13.8 mph
3:54 AM28.9 °F19.9 °F69 %29.86 inWest (260°)12.7 mph
4:54 AM28.9 °F19.0 °F67 %29.88 inWest (270°)12.7 mph
5:54 AM28.0 °F19.0 °F69 %29.87 inWest (260°)10.4 mph
6:54 AM28.0 °F19.0 °F69 %29.88 inWest (260°)11.5 mph
7:54 AM28.9 °F19.9 °F69 %29.87 inWNW (290°)8.1 mph
8:54 AM32.0 °F21.0 °F64 %29.89 inWest (270°)3.5 mph
9:54 AM35.1 °F21.9 °F59 %29.87 inWest (280°)9.2 mph
10:54 AM37.0 °F21.9 °F54 %29.85 inWNW (290°)6.9 mph
11:54 AM37.9 °F21.9 °F53 %29.84 inSW (230°)8.1 mph
12:54 PM39.9 °F21.9 °F49 %29.83 inSSW (200°)9.2 mph
1:54 PM39.9 °F21.9 °F49 %29.81 inSW (230°)8.1 mph
2:54 PM39.9 °F21.9 °F49 %29.79 inWest (280°)6.9 mph
3:54 PM39.9 °F21.9 °F49 %29.77 inNNW (330°)4.6 mph
4:54 PM37.0 °F21.9 °F54 %29.77 inNNW (330°)4.6 mph
5:54 PM35.1 °F21.9 °F59 %29.77 inCalm
6:54 PM33.1 °F23.0 °F66 %29.76 inEast (90°)5.8 mph
7:54 PM34.0 °F24.1 °F67 %29.75 inESE (120°)3.5 mph
8:54 PM33.1 °F24.1 °F70 %29.75 inEast (100°)4.6 mph
9:54 PM35.1 °F23.0 °F61 %29.74 inENE (70°)5.8 mph
10:54 PM33.1 °F24.1 °F70 %29.74 inNE (50°)5.8 mph
11:54 PM32.0 °F25.0 °F75 %29.73 inNE (40°)4.6 mph
Hourly data recorded from KMQE, located miles away from Abington, Massachusetts







STORIES FROM OUR PARTNERS